Location: Unspecified
(26.1870°N, 0.0000°E)
Time: 04:21:41
(UTC+00:00)

CZ-6A DEB - Visible Passes

Search period start: 04 April 2026 00:00
Search period end: 14 April 2026 00:00
Orbit: 791 x 1128 km, 89.0° (Epoch: 28 March)

Date Brightness Start Highest point End Pass type
(mag) Time Alt. Az. Time Alt. Az. Time Alt. Az.
5 Apr ? 18:46:26 10° NNW 18:51:34 43° W 18:56:27 10° SSW visible
6 Apr ? 04:41:21 10° ENE 04:41:35 10° ENE 04:41:49 10° ENE visible
6 Apr ? 19:07:33 10° NNW 19:11:43 23° W 19:15:46 10° SW visible
7 Apr ? 04:57:11 10° ESE 05:01:40 19° E 05:06:03 10° NE visible
7 Apr ? 19:29:45 10° NW 19:31:48 12° WNW 19:33:49 10° W visible
8 Apr ? 05:15:57 10° SE 05:21:51 31° E 05:27:34 10° NNE visible
10 Apr ? 18:44:39 10° NNW 18:48:59 26° W 18:53:15 10° SW visible
11 Apr ? 04:35:17 10° ESE 04:39:11 16° E 04:42:58 10° NE visible
11 Apr ? 19:06:28 10° NW 19:09:06 14° WNW 19:11:43 10° WSW visible
12 Apr ? 04:53:46 10° SE 04:59:21 27° E 05:04:40 10° NNE visible
13 Apr ? 05:13:09 10° SSE 05:19:36 45° E 05:25:41 10° NNE visible
